This is the latest recevied weather packets stored in our database for station/object YO8PIC-4. If no packets are shown the sender has not sent any weather packets the latest 10 day(s).
| Time | Temp. | Humidity | Pressure | Rain* | Wind** | Luminosity | Snow |
|---|---|---|---|---|---|---|---|
| 1778156545 | 24.44° C | 48% | 1011.5 hPa | - | - | - | - |
| 1778155945 | 24.44° C | 48% | 1011.6 hPa | - | - | - | - |
| 1778155345 | 24.44° C | 48% | 1011.7 hPa | - | - | - | - |
| 1778154745 | 24.44° C | 48% | 1011.8 hPa | - | - | - | - |
| 1778154144 | 24.44° C | 48% | 1011.9 hPa | - | - | - | - |
| 1778153544 | 24.44° C | 48% | 1011.9 hPa | - | - | - | - |
| 1778152987 | 24.44° C | 48% | 1011.9 hPa | - | - | - | - |
| 1778152387 | 24.44° C | 47% | 1012 hPa | - | - | - | - |
| 1778151787 | 24.44° C | 47% | 1012 hPa | - | - | - | - |
| 1778151187 | 24.44° C | 47% | 1012.2 hPa | - | - | - | - |
| 1778150587 | 25° C | 48% | 1012.1 hPa | - | - | - | - |
| 1778149986 | 25° C | 46% | 1012.1 hPa | - | - | - | - |
| 1778149386 | 25° C | 45% | 1012.2 hPa | - | - | - | - |
| 1778148786 | 25° C | 44% | 1012.4 hPa | - | - | - | - |
| 1778148186 | 25° C | 43% | 1012.3 hPa | - | - | - | - |
| 1778147586 | 25° C | 42% | 1012.4 hPa | - | - | - | - |
| 1778146986 | 27.22° C | 36% | 1012.4 hPa | - | - | - | - |
| 1778146386 | 26.67° C | 37% | 1012.5 hPa | - | - | - | - |
| 1778145785 | 27.22° C | 36% | 1012.6 hPa | - | - | - | - |
| 1778145185 | 27.22° C | 38% | 1012.5 hPa | - | - | - | - |
| 1778144585 | 26.67° C | 39% | 1012.6 hPa | - | - | - | - |
| 1778143985 | 26.67° C | 38% | 1012.5 hPa | - | - | - | - |
| 1778143385 | 27.22° C | 36% | 1012.5 hPa | - | - | - | - |
| 1778142785 | 27.22° C | 34% | 1012.5 hPa | - | - | - | - |
| 1778142185 | 26.67° C | 36% | 1012.5 hPa | - | - | - | - |
* Rain since midnight (hover to see other rain measurements)
** Current wind speed in m/s (hover to see current wind gust speed)